Weather History for Fort Smith, AR

Change the Weather History Date:

Sunday, January 1, 2012

  Actual Average Record
Temperature  
Mean Temperature 46 °F 39 °F  
Max Temperature 57 °F 49 °F 76 °F (1910)
Min Temperature 35 °F 29 °F 2 °F (1928)
Degree Days  
Heating Degree Days 19 26  
Month to date heating degree days 19 26  
Since 1 July heating degree days 1074 1325  
Moisture  
Dew Point 26 °F    
Average Humidity 48    
Maximum Humidity 73    
Minimum Humidity 22    
Precipitation  
Precipitation 0.00 in 0.09 in 1.67 in (1890)
Month to date precipitation 0.00 0.09  
Year to date precipitation 0.00 0.09  
Sea Level Pressure  
Sea Level Pressure 30.41 in    
Wind  
Wind Speed 11 mph (WNW)    
Max Wind Speed 26 mph    
Max Gust Speed 35 mph    
Visibility 10 miles    
Events      
T = Trace of Precipitation, MM = Missing Value Source: NWS Daily Summary

Daily Weather History Graph

Daily Weather History Graph

Search for Another Location

Airport:

Trip Planner

Search our weather history database for the weather conditions in past years. The results will help you decide how hot, cold, wet, or windy it might be!

Date:

Astronomy

Jan. 01, 2012 Rise Set
Actual Time 7:26 AM CST 5:15 PM CST
Civil Twilight 6:58 AM CST 5:43 PM CST
Nautical Twilight 6:26 AM CST 6:15 PM CST
Astronomical Twilight 5:55 AM CST 6:46 PM CST
Moon 11:57 AM CST (1/1) 12:30 AM CST (1/1)
Length of Visible Light 10h 45m
Length of Day
9h 49m
First Quarter, 55% of the Moon is Illuminated
Jan 1
First Quarter
Jan 9
Full
Jan 16
Last Quarter
Jan 23
New
Jan 30
First Quarter

Hourly Weather History & Observations

Time (CST) Temp. Windchill Dew Point Humidity Pressure Visibility Wind Dir Wind Speed Gust Speed Precip Events Conditions
12:53 AM 53.1 °F - 33.1 °F 47% 30.08 in 10.0 mi WNW 24.2 mph 33.4 mph N/A   Clear
1:53 AM 50.0 °F - 36.0 °F 59% 30.12 in 10.0 mi WNW 17.3 mph - N/A   Partly Cloudy
2:53 AM 48.2 °F - 35.6 °F 62% 30.18 in 10.0 mi NW 16.1 mph 27.6 mph N/A   Clear
3:53 AM 48.0 °F - 34.0 °F 58% 30.24 in 10.0 mi WNW 12.7 mph - N/A   Clear
4:53 AM 45.0 °F 39.7 °F 35.1 °F 68% 30.28 in 10.0 mi West 10.4 mph - N/A   Clear
5:53 AM 43.0 °F 36.8 °F 34.0 °F 71% 30.31 in 10.0 mi West 11.5 mph - N/A   Clear
6:53 AM 42.1 °F 36.1 °F 33.1 °F 70% 30.36 in 10.0 mi WSW 10.4 mph - N/A   Clear
7:53 AM 41.0 °F 34.7 °F 33.1 °F 73% 30.39 in 10.0 mi West 10.4 mph - N/A   Clear
8:53 AM 45.0 °F 41.2 °F 32.0 °F 60% 30.42 in 10.0 mi WNW 6.9 mph - N/A   Clear
9:53 AM 48.0 °F - 28.0 °F 46% 30.45 in 10.0 mi NW 12.7 mph - N/A   Clear
10:53 AM 50.0 °F - 27.0 °F 41% 30.47 in 10.0 mi NNW 12.7 mph - N/A   Clear
11:53 AM 52.0 °F - 24.1 °F 34% 30.47 in 10.0 mi NW 9.2 mph - N/A   Clear
12:53 PM 55.0 °F - 21.9 °F 28% 30.46 in 10.0 mi NNW 11.5 mph 16.1 mph N/A   Clear
1:53 PM 55.9 °F - 19.9 °F 25% 30.46 in 10.0 mi NNW 10.4 mph 20.7 mph N/A   Clear
2:53 PM 57.2 °F - 19.4 °F 23% 30.46 in 10.0 mi NNW 13.8 mph - N/A   Clear
3:53 PM 55.4 °F - 17.6 °F 23% 30.48 in 10.0 mi North 11.5 mph - N/A   Clear
4:53 PM 53.1 °F - 17.1 °F 24% 30.50 in 10.0 mi NW 10.4 mph - N/A   Clear
5:53 PM 50.0 °F - 16.0 °F 26% 30.51 in 10.0 mi NW 8.1 mph - N/A   Clear
6:53 PM 48.0 °F - 18.0 °F 30% 30.53 in 10.0 mi WNW 9.2 mph - N/A   Clear
7:53 PM 42.1 °F 38.4 °F 19.9 °F 41% 30.53 in 10.0 mi West 5.8 mph - N/A   Clear
8:53 PM 42.8 °F 37.5 °F 21.2 °F 42% 30.53 in 10.0 mi WNW 9.2 mph - N/A   Clear
9:53 PM 39.0 °F 34.8 °F 21.0 °F 49% 30.55 in 10.0 mi West 5.8 mph - N/A   Clear
10:53 PM 35.1 °F 29.3 °F 23.0 °F 61% 30.56 in 10.0 mi West 6.9 mph - N/A   Clear
11:53 PM 35.1 °F 30.1 °F 23.0 °F 61% 30.57 in 10.0 mi West 5.8 mph - N/A   Clear